Precipitable_Water
0.44 0.45 0.45 0.44 0.44 0.44 0.43 0.41 0.39 0.38 0.37 0.36 0.35 0.35 0.36 0.36 0.37 0.37 0.39 0.40 0.40 0.40 0.40 0.41 0.46 0.47 0.45 0.47 0.48 0.47 0.47 0.38 0.44 0.43 0.39 0.41 0.54 0.52 0.55 0.45 0.42 0.38 0.47 0.56 0.91 0.83 0.89 0.99 1.00 1.18 1.05 1.14 1.07 1.12 1.29 1.27 1.34 1.43 1.26 1.14 1.05 1.19 1.05 1.22 1.24 1.20 1.40 1.31 1.31 1.37 1.46 1.35 1.27 1.39 1.44 1.52 1.40 1.40 1.33 1.44 1.42 1.50 1.51 1.56 1.61 1.62 1.66 1.66
0.44 0.45 0.45 0.45 0.44 0.44 0.43 0.42 0.40 0.39 0.39 0.37 0.36 0.36 0.35 0.36 0.35 0.35 0.37 0.38 0.38 0.39 0.38 0.41 0.43 0.43 0.44 0.45 0.47 0.45 0.40 0.40 0.37 0.40 0.37 0.53 0.48 0.56 0.51 0.45 0.45 0.37 0.47 0.55 0.76 0.71 0.84 0.88 0.97 1.05 0.91 0.93 1.12 1.02 1.20 1.13 1.23 1.14 1.21 1.26 1.13 1.19 1.29 1.39 1.43 1.45 1.34 1.33 1.40 1.47 1.51 1.37 1.35 1.41 1.35 1.31 1.28 1.27 1.27 1.36 1.37 1.36 1.47 1.58 1.57 1.56 1.59 1.59
0.43 0.44 0.45 0.45 0.45 0.44 0.43 0.43 0.41 0.40 0.39 0.39 0.37 0.37 0.37 0.35 0.35 0.34 0.35 0.37 0.37 0.37 0.38 0.40 0.42 0.42 0.42 0.43 0.44 0.42 0.36 0.39 0.49 0.47 0.61 0.63 0.57 0.62 0.63 0.52 0.45 0.40 0.41 0.57 0.79 0.72 0.78 0.88 0.93 0.88 0.86 0.86 0.97 0.90 1.04 1.07 1.07 1.00 1.08 1.10 1.23 1.29 1.44 1.45 1.45 1.37 1.42 1.50 1.41 1.38 1.44 1.44 1.36 1.42 1.35 1.32 1.21 1.26 1.22 1.22 1.29 1.29 1.26 1.38 1.45 1.51 1.52 1.53
0.42 0.43 0.44 0.45 0.45 0.44 0.43 0.42 0.41 0.41 0.40 0.39 0.38 0.37 0.36 0.35 0.34 0.34 0.35 0.35 0.35 0.36 0.36 0.39 0.41 0.41 0.41 0.41 0.43 0.44 0.40 0.35 0.40 0.64 0.76 0.76 0.76 0.71 0.67 0.57 0.48 0.42 0.41 0.72 0.90 0.79 0.85 0.91 0.94 0.79 0.81 0.69 0.95 0.87 0.96 0.96 0.89 0.98 0.95 0.95 1.16 1.36 1.42 1.38 1.43 1.37 1.37 1.42 1.35 1.43 1.39 1.36 1.34 1.47 1.31 1.32 1.17 1.18 1.25 1.33 1.32 1.26 1.25 1.31 1.39 1.46 1.48 1.46
0.41 0.42 0.43 0.44 0.44 0.45 0.44 0.42 0.41 0.41 0.40 0.40 0.38 0.37 0.36 0.35 0.34 0.34 0.34 0.35 0.35 0.35 0.36 0.38 0.39 0.40 0.40 0.42 0.41 0.41 0.36 0.20 0.40 0.63 0.67 0.65 0.79 0.76 0.71 0.60 0.51 0.41 0.41 0.74 0.86 0.82 0.77 0.78 0.87 0.73 0.76 0.66 0.77 0.81 0.76 0.90 0.95 0.98 1.00 1.09 1.15 1.36 1.26 1.39 1.39 1.42 1.35 1.41 1.37 1.36 1.24 1.30 1.46 1.47 1.29 1.35 1.21 1.13 1.37 1.39 1.45 1.38 1.33 1.32 1.34 1.44 1.46 1.40
0.40 0.41 0.42 0.44 0.44 0.44 0.44 0.42 0.41 0.41 0.40 0.39 0.38 0.37 0.35 0.34 0.33 0.34 0.34 0.33 0.34 0.34 0.34 0.38 0.40 0.37 0.41 0.42 0.38 0.38 0.31 0.19 0.52 0.55 0.62 0.66 0.77 0.83 0.75 0.61 0.54 0.44 0.43 0.65 0.73 0.70 0.67 0.70 0.74 0.59 0.62 0.69 0.63 0.66 0.72 0.73 0.93 0.69 0.91 0.99 1.18 1.34 1.32 1.42 1.38 1.35 1.38 1.34 1.29 1.27 1.36 1.41 1.36 1.34 1.35 1.37 1.24 1.31 1.69 1.50 1.49 1.43 1.39 1.39 1.39 1.40 1.40 1.37
0.39 0.41 0.42 0.44 0.45 0.45 0.44 0.42 0.41 0.41 0.41 0.39 0.38 0.36 0.34 0.33 0.33 0.33 0.34 0.33 0.32 0.34 0.34 0.36 0.38 0.40 0.40 0.42 0.42 0.32 0.25 0.27 0.41 0.56 0.64 0.71 0.69 0.80 0.81 0.63 0.57 0.46 0.44 0.57 0.67 0.61 0.59 0.60 0.59 0.51 0.56 0.61 0.65 0.66 0.71 0.69 0.73 0.74 0.76 1.09 1.14 1.23 1.25 1.41 1.37 1.34 1.32 1.28 1.29 1.39 1.27 1.36 1.35 1.27 1.40 1.41 1.28 1.64 1.74 1.61 1.52 1.48 1.45 1.43 1.35 1.34 1.37 1.35
0.39 0.41 0.42 0.44 0.45 0.44 0.43 0.41 0.41 0.41 0.39 0.39 0.38 0.36 0.35 0.33 0.32 0.32 0.32 0.32 0.32 0.33 0.36 0.39 0.40 0.41 0.43 0.37 0.31 0.32 0.19 0.25 0.42 0.46 0.61 0.72 0.80 0.82 0.82 0.64 0.55 0.48 0.43 0.53 0.61 0.54 0.55 0.54 0.48 0.50 0.48 0.52 0.56 0.59 0.69 0.64 0.68 0.64 0.63 0.85 1.10 1.26 1.29 1.37 1.35 1.34 1.33 1.30 1.34 1.33 1.26 1.29 1.35 1.35 1.33 1.43 1.43 1.44 1.59 1.58 1.48 1.47 1.44 1.41 1.36 1.32 1.36 1.35
0.39 0.40 0.41 0.44 0.45 0.45 0.43 0.41 0.40 0.40 0.39 0.38 0.37 0.35 0.35 0.34 0.32 0.31 0.31 0.32 0.34 0.36 0.40 0.41 0.41 0.44 0.45 0.36 0.24 0.22 0.25 0.40 0.39 0.39 0.53 0.66 0.70 0.78 0.71 0.59 0.58 0.50 0.45 0.55 0.64 0.56 0.53 0.51 0.52 0.46 0.41 0.44 0.53 0.48 0.59 0.59 0.59 0.64 0.64 0.71 0.79 0.99 1.19 1.29 1.30 1.30 1.33 1.28 1.28 1.21 1.20 1.33 1.31 1.44 1.29 1.42 1.49 1.57 1.57 1.52 1.41 1.43 1.38 1.37 1.35 1.33 1.34 1.33
0.39 0.39 0.41 0.43 0.45 0.45 0.43 0.41 0.39 0.39 0.39 0.37 0.36 0.35 0.35 0.34 0.33 0.31 0.31 0.34 0.37 0.39 0.41 0.42 0.46 0.48 0.39 0.28 0.32 0.24 0.31 0.42 0.40 0.42 0.45 0.58 0.62 0.67 0.64 0.65 0.62 0.61 0.57 0.58 0.62 0.55 0.50 0.55 0.49 0.47 0.47 0.48 0.47 0.41 0.49 0.55 0.57 0.75 0.62 0.60 0.66 0.82 1.04 1.18 1.18 1.25 1.31 1.25 1.33 1.16 1.18 1.28 1.38 1.31 1.13 1.37 1.50 1.53 1.49 1.42 1.38 1.38 1.36 1.36 1.32 1.33 1.35 1.31
0.39 0.39 0.41 0.44 0.46 0.45 0.43 0.40 0.39 0.39 0.39 0.38 0.37 0.36 0.34 0.33 0.32 0.32 0.34 0.39 0.40 0.40 0.42 0.46 0.49 0.44 0.35 0.42 0.29 0.29 0.42 0.41 0.36 0.41 0.44 0.61 0.50 0.54 0.63 0.70 0.70 0.76 0.74 0.70 0.62 0.58 0.58 0.57 0.52 0.53 0.43 0.38 0.40 0.39 0.43 0.50 0.62 0.63 0.73 0.77 0.72 0.70 0.81 1.03 1.13 1.17 1.26 1.20 1.26 1.18 1.15 1.30 1.40 1.29 1.16 1.31 1.41 1.53 1.45 1.39 1.32 1.34 1.32 1.34 1.35 1.30 1.33 1.32
0.40 0.40 0.41 0.44 0.46 0.45 0.43 0.41 0.39 0.38 0.39 0.38 0.37 0.35 0.34 0.34 0.34 0.35 0.38 0.40 0.40 0.40 0.44 0.46 0.48 0.45 0.44 0.35 0.35 0.27 0.39 0.37 0.35 0.38 0.45 0.45 0.55 0.54 0.72 0.76 0.76 0.84 0.78 0.68 0.59 0.56 0.57 0.54 0.54 0.47 0.36 0.33 0.26 0.33 0.37 0.46 0.47 0.50 0.54 0.50 0.59 0.64 0.63 0.76 0.89 1.05 1.17 1.14 1.25 1.25 1.12 1.17 1.18 1.14 1.30 1.36 1.42 1.54 1.50 1.39 1.32 1.29 1.32 1.35 1.34 1.32 1.29 1.29
0.40 0.40 0.42 0.45 0.47 0.46 0.44 0.42 0.40 0.39 0.39 0.39 0.37 0.35 0.35 0.35 0.37 0.38 0.40 0.38 0.39 0.40 0.44 0.50 0.48 0.50 0.51 0.41 0.25 0.28 0.31 0.42 0.36 0.27 0.35 0.41 0.53 0.54 0.69 0.76 0.77 0.86 0.85 0.73 0.59 0.54 0.53 0.54 0.53 0.43 0.46 0.31 0.23 0.24 0.42 0.42 0.39 0.44 0.46 0.48 0.51 0.52 0.53 0.65 0.78 0.91 1.02 1.10 1.19 1.15 0.80 0.92 1.12 1.21 1.25 1.44 1.45 1.44 1.44 1.46 1.29 1.37 1.37 1.37 1.32 1.32 1.28 1.30
0.41 0.40 0.42 0.45 0.46 0.46 0.44 0.43 0.40 0.39 0.39 0.40 0.38 0.36 0.36 0.36 0.39 0.42 0.38 0.39 0.42 0.46 0.49 0.51 0.55 0.53 0.44 0.25 0.29 0.29 0.31 0.39 0.38 0.26 0.29 0.39 0.44 0.46 0.54 0.70 0.75 0.81 0.88 0.77 0.74 0.64 0.55 0.56 0.55 0.48 0.49 0.35 0.24 0.39 0.35 0.36 0.40 0.36 0.40 0.44 0.39 0.38 0.41 0.61 0.69 0.81 0.86 1.08 1.10 1.15 0.82 0.94 1.14 1.23 1.34 1.41 1.50 1.43 1.38 1.44 1.30 1.38 1.39 1.35 1.35 1.29 1.25 1.28
0.41 0.41 0.42 0.45 0.47 0.46 0.45 0.42 0.40 0.38 0.38 0.40 0.39 0.36 0.37 0.38 0.40 0.41 0.40 0.45 0.48 0.52 0.51 0.54 0.55 0.53 0.47 0.29 0.35 0.32 0.36 0.38 0.40 0.37 0.26 0.29 0.46 0.48 0.42 0.56 0.62 0.71 0.80 0.79 0.74 0.70 0.61 0.57 0.53 0.43 0.38 0.42 0.33 0.28 0.27 0.29 0.33 0.35 0.33 0.31 0.36 0.34 0.38 0.51 0.66 0.76 0.77 0.99 1.07 1.02 0.81 0.83 1.12 1.18 1.33 1.40 1.38 1.45 1.35 1.38 1.40 1.40 1.35 1.40 1.34 1.31 1.25 1.25
0.42 0.42 0.43 0.46 0.49 0.48 0.46 0.43 0.41 0.39 0.36 0.39 0.38 0.35 0.41 0.43 0.42 0.43 0.46 0.51 0.52 0.53 0.60 0.52 0.49 0.48 0.39 0.27 0.24 0.35 0.39 0.23 0.23 0.27 0.28 0.29 0.31 0.49 0.58 0.52 0.57 0.64 0.73 0.72 0.77 0.69 0.60 0.58 0.45 0.41 0.38 0.36 0.24 0.21 0.23 0.23 0.24 0.32 0.31 0.31 0.32 0.35 0.38 0.45 0.63 0.76 0.84 0.94 1.03 0.92 0.80 0.98 1.04 1.15 1.24 1.37 1.41 1.42 1.34 1.36 1.38 1.51 1.49 1.35 1.31 1.34 1.29 1.26
0.43 0.43 0.44 0.47 0.50 0.50 0.48 0.45 0.42 0.40 0.36 0.38 0.39 0.36 0.44 0.43 0.42 0.47 0.45 0.48 0.53 0.57 0.54 0.46 0.44 0.48 0.38 0.24 0.31 0.25 0.23 0.26 0.29 0.28 0.30 0.31 0.27 0.49 0.53 0.51 0.50 0.56 0.62 0.67 0.67 0.66 0.61 0.52 0.47 0.39 0.36 0.29 0.24 0.20 0.16 0.16 0.16 0.21 0.30 0.29 0.33 0.34 0.37 0.37 0.60 0.76 0.84 0.86 0.87 0.95 0.83 0.87 0.97 1.05 1.22 1.31 1.45 1.35 1.35 1.32 1.38 1.55 1.48 1.39 1.30 1.32 1.30 1.26
0.43 0.43 0.44 0.46 0.49 0.50 0.49 0.46 0.44 0.41 0.38 0.39 0.40 0.37 0.40 0.46 0.46 0.47 0.48 0.48 0.59 0.55 0.55 0.52 0.41 0.42 0.31 0.24 0.19 0.19 0.24 0.25 0.28 0.29 0.32 0.32 0.29 0.44 0.46 0.45 0.52 0.53 0.52 0.53 0.58 0.51 0.54 0.39 0.37 0.26 0.28 0.26 0.27 0.21 0.13 0.10 0.13 0.16 0.21 0.26 0.29 0.34 0.38 0.38 0.44 0.69 0.77 0.84 0.81 0.91 0.87 0.89 0.97 1.10 1.12 1.28 1.37 1.32 1.33 1.31 1.37 1.56 1.46 1.41 1.34 1.32 1.31 1.29
0.44 0.44 0.43 0.45 0.49 0.50 0.49 0.46 0.44 0.42 0.39 0.42 0.43 0.46 0.45 0.52 0.50 0.47 0.41 0.48 0.37 0.44 0.45 0.29 0.24 0.23 0.17 0.20 0.24 0.21 0.22 0.24 0.28 0.30 0.33 0.32 0.28 0.50 0.47 0.47 0.47 0.45 0.39 0.41 0.44 0.42 0.43 0.33 0.32 0.25 0.22 0.21 0.21 0.23 0.15 0.13 0.17 0.17 0.20 0.24 0.29 0.30 0.33 0.37 0.44 0.61 0.73 0.73 0.73 0.82 0.84 0.86 0.91 1.08 1.11 1.21 1.27 1.22 1.28 1.40 1.49 1.53 1.42 1.40 1.36 1.32 1.32 1.30
0.45 0.44 0.42 0.43 0.47 0.50 0.49 0.47 0.45 0.41 0.42 0.40 0.41 0.47 0.47 0.37 0.40 0.37 0.33 0.33 0.19 0.18 0.20 0.20 0.18 0.16 0.19 0.20 0.17 0.20 0.23 0.26 0.23 0.27 0.35 0.36 0.33 0.48 0.42 0.38 0.39 0.42 0.37 0.32 0.39 0.36 0.40 0.24 0.23 0.20 0.21 0.23 0.22 0.25 0.23 0.18 0.19 0.22 0.22 0.23 0.26 0.30 0.34 0.39 0.43 0.51 0.71 0.71 0.73 0.76 0.79 0.90 0.95 1.02 1.21 1.17 1.20 1.19 1.22 1.28 1.51 1.53 1.47 1.40 1.32 1.32 1.34 1.32
0.47 0.44 0.42 0.41 0.43 0.48 0.49 0.47 0.45 0.44 0.42 0.43 0.41 0.31 0.22 0.19 0.19 0.23 0.20 0.18 0.17 0.21 0.18 0.18 0.17 0.15 0.16 0.17 0.18 0.19 0.20 0.21 0.25 0.25 0.35 0.37 0.51 0.44 0.39 0.33 0.33 0.28 0.33 0.36 0.36 0.40 0.38 0.24 0.22 0.25 0.26 0.28 0.27 0.25 0.24 0.23 0.20 0.20 0.23 0.22 0.22 0.27 0.29 0.37 0.40 0.49 0.64 0.66 0.68 0.81 0.81 0.83 0.94 1.00 1.06 1.12 1.09 1.08 1.15 1.27 1.43 1.41 1.40 1.36 1.30 1.29 1.33 1.38
0.49 0.45 0.43 0.41 0.41 0.46 0.49 0.48 0.46 0.46 0.44 0.46 0.39 0.28 0.28 0.27 0.28 0.32 0.23 0.20 0.20 0.19 0.20 0.20 0.18 0.19 0.20 0.18 0.19 0.20 0.21 0.19 0.23 0.26 0.31 0.39 0.50 0.38 0.44 0.29 0.29 0.24 0.32 0.33 0.36 0.32 0.29 0.24 0.22 0.26 0.30 0.31 0.32 0.29 0.25 0.22 0.19 0.19 0.19 0.22 0.23 0.25 0.29 0.37 0.40 0.48 0.53 0.66 0.62 0.73 0.75 0.78 0.87 0.97 1.08 1.05 1.02 1.07 1.21 1.28 1.32 1.42 1.39 1.35 1.32 1.35 1.40 1.38
0.53 0.48 0.46 0.43 0.40 0.44 0.49 0.49 0.46 0.48 0.44 0.41 0.34 0.33 0.29 0.34 0.37 0.37 0.29 0.23 0.17 0.20 0.21 0.19 0.20 0.18 0.18 0.19 0.19 0.20 0.18 0.19 0.21 0.23 0.28 0.35 0.40 0.43 0.50 0.33 0.30 0.27 0.31 0.30 0.27 0.26 0.23 0.26 0.28 0.28 0.32 0.32 0.30 0.30 0.27 0.22 0.21 0.20 0.18 0.16 0.19 0.26 0.29 0.27 0.35 0.44 0.48 0.51 0.56 0.61 0.65 0.74 0.83 0.92 1.07 1.02 1.02 1.13 1.21 1.31 1.30 1.41 1.35 1.32 1.33 1.34 1.38 1.39
0.54 0.53 0.49 0.46 0.42 0.42 0.49 0.48 0.49 0.48 0.49 0.38 0.36 0.35 0.41 0.41 0.39 0.36 0.28 0.20 0.20 0.20 0.20 0.21 0.21 0.19 0.17 0.17 0.20 0.18 0.17 0.20 0.18 0.23 0.26 0.26 0.34 0.43 0.41 0.40 0.32 0.27 0.27 0.29 0.28 0.26 0.24 0.29 0.33 0.32 0.32 0.33 0.29 0.28 0.29 0.25 0.20 0.19 0.18 0.16 0.15 0.20 0.27 0.31 0.36 0.41 0.43 0.46 0.53 0.58 0.53 0.60 0.72 0.79 0.85 1.04 1.12 1.19 1.18 1.27 1.23 1.39 1.37 1.38 1.41 1.42 1.47 1.41
0.55 0.54 0.52 0.49 0.43 0.43 0.48 0.51 0.45 0.40 0.39 0.44 0.36 0.41 0.42 0.44 0.39 0.40 0.27 0.24 0.19 0.17 0.25 0.22 0.22 0.20 0.19 0.23 0.23 0.18 0.20 0.16 0.18 0.23 0.25 0.28 0.28 0.29 0.28 0.41 0.39 0.32 0.27 0.31 0.28 0.27 0.27 0.31 0.31 0.28 0.28 0.29 0.28 0.26 0.27 0.26 0.22 0.20 0.18 0.16 0.17 0.18 0.20 0.26 0.30 0.36 0.35 0.39 0.48 0.50 0.39 0.44 0.61 0.69 0.76 0.87 1.05 1.16 1.23 1.19 1.16 1.27 1.35 1.37 1.35 1.33 1.37 1.46
0.56 0.54 0.52 0.50 0.47 0.44 0.53 0.46 0.44 0.41 0.41 0.38 0.38 0.43 0.44 0.44 0.44 0.40 0.30 0.18 0.16 0.20 0.23 0.20 0.20 0.20 0.23 0.20 0.20 0.21 0.17 0.17 0.23 0.24 0.23 0.28 0.28 0.27 0.28 0.26 0.32 0.33 0.34 0.31 0.30 0.28 0.27 0.32 0.31 0.27 0.26 0.25 0.26 0.24 0.26 0.28 0.24 0.21 0.20 0.21 0.18 0.17 0.15 0.16 0.25 0.29 0.32 0.30 0.39 0.47 0.35 0.32 0.50 0.58 0.68 0.77 0.83 0.91 1.10 1.23 1.19 1.29 1.33 1.28 1.28 1.36 1.45 1.47
0.55 0.54 0.53 0.51 0.49 0.49 0.39 0.42 0.49 0.46 0.39 0.37 0.44 0.46 0.46 0.42 0.47 0.39 0.18 0.15 0.11 0.22 0.19 0.21 0.20 0.21 0.25 0.21 0.21 0.19 0.17 0.19 0.24 0.25 0.25 0.30 0.25 0.30 0.21 0.23 0.29 0.31 0.40 0.42 0.33 0.27 0.30 0.29 0.29 0.29 0.27 0.24 0.23 0.22 0.25 0.28 0.26 0.21 0.22 0.21 0.20 0.16 0.12 0.13 0.20 0.28 0.32 0.41 0.44 0.45 0.42 0.31 0.35 0.48 0.62 0.68 0.74 0.83 0.94 1.11 1.14 1.15 1.18 1.17 1.26 1.46 1.61 1.50
0.56 0.56 0.56 0.55 0.51 0.53 0.45 0.46 0.48 0.42 0.41 0.44 0.48 0.48 0.47 0.43 0.41 0.37 0.20 0.08 0.13 0.24 0.20 0.21 0.23 0.28 0.24 0.23 0.21 0.18 0.20 0.24 0.18 0.24 0.27 0.29 0.24 0.25 0.18 0.20 0.23 0.28 0.27 0.35 0.27 0.36 0.34 0.27 0.27 0.26 0.26 0.25 0.22 0.24 0.27 0.28 0.24 0.22 0.22 0.21 0.20 0.20 0.16 0.12 0.16 0.25 0.33 0.36 0.32 0.39 0.43 0.35 0.31 0.40 0.58 0.67 0.62 0.70 0.81 0.98 1.10 1.19 1.21 1.19 1.26 1.35 1.50 1.52
0.58 0.59 0.60 0.57 0.56 0.55 0.57 0.50 0.46 0.44 0.49 0.51 0.50 0.51 0.45 0.50 0.38 0.27 0.20 0.12 0.24 0.21 0.29 0.20 0.28 0.23 0.23 0.23 0.21 0.20 0.19 0.21 0.17 0.23 0.25 0.25 0.24 0.27 0.22 0.24 0.22 0.26 0.32 0.30 0.25 0.37 0.40 0.35 0.31 0.27 0.26 0.23 0.26 0.29 0.29 0.27 0.22 0.24 0.25 0.24 0.23 0.21 0.20 0.16 0.12 0.13 0.21 0.26 0.23 0.30 0.36 0.31 0.31 0.38 0.41 0.56 0.63 0.62 0.70 0.85 1.06 1.21 1.21 1.20 1.22 1.35 1.41 1.46
0.61 0.61 0.61 0.60 0.61 0.65 0.62 0.63 0.56 0.56 0.54 0.54 0.54 0.52 0.45 0.38 0.36 0.19 0.13 0.10 0.23 0.17 0.22 0.24 0.23 0.21 0.23 0.21 0.21 0.21 0.20 0.20 0.20 0.21 0.22 0.20 0.29 0.22 0.18 0.27 0.24 0.21 0.21 0.26 0.26 0.30 0.36 0.43 0.39 0.31 0.27 0.29 0.31 0.30 0.28 0.26 0.24 0.26 0.26 0.24 0.25 0.24 0.21 0.20 0.16 0.12 0.12 0.11 0.14 0.21 0.30 0.33 0.29 0.34 0.40 0.42 0.53 0.65 0.71 0.77 0.93 1.10 1.21 1.24 1.25 1.26 1.38 1.48
0.62 0.63 0.62 0.63 0.58 0.59 0.51 0.51 0.56 0.58 0.58 0.56 0.55 0.49 0.42 0.34 0.23 0.20 0.13 0.20 0.24 0.23 0.25 0.22 0.21 0.24 0.20 0.18 0.19 0.21 0.20 0.19 0.20 0.19 0.21 0.25 0.19 0.19 0.21 0.21 0.19 0.16 0.17 0.18 0.18 0.22 0.26 0.35 0.35 0.36 0.37 0.35 0.34 0.31 0.30 0.28 0.27 0.25 0.24 0.23 0.22 0.23 0.24 0.21 0.19 0.17 0.11 0.09 0.10 0.13 0.19 0.29 0.27 0.33 0.44 0.45 0.56 0.67 0.72 0.75 0.82 0.98 1.14 1.16 1.20 1.22 1.33 1.39
0.63 0.64 0.64 0.62 0.60 0.62 0.50 0.48 0.57 0.59 0.58 0.59 0.53 0.42 0.37 0.23 0.26 0.14 0.16 0.31 0.18 0.21 0.20 0.20 0.22 0.21 0.20 0.21 0.19 0.19 0.18 0.20 0.20 0.19 0.23 0.24 0.27 0.24 0.22 0.17 0.25 0.16 0.12 0.12 0.13 0.18 0.17 0.20 0.29 0.36 0.42 0.38 0.34 0.30 0.29 0.28 0.28 0.26 0.24 0.25 0.20 0.19 0.21 0.17 0.17 0.13 0.11 0.08 0.11 0.11 0.13 0.19 0.25 0.35 0.45 0.49 0.50 0.58 0.71 0.79 0.86 0.96 1.09 1.13 1.17 1.15 1.27 1.40
0.65 0.66 0.66 0.63 0.64 0.61 0.65 0.63 0.63 0.63 0.62 0.56 0.49 0.43 0.30 0.22 0.18 0.24 0.21 0.22 0.18 0.23 0.22 0.24 0.21 0.21 0.22 0.19 0.20 0.20 0.21 0.17 0.19 0.19 0.19 0.21 0.22 0.26 0.27 0.22 0.27 0.23 0.17 0.20 0.18 0.16 0.17 0.20 0.22 0.25 0.37 0.40 0.37 0.28 0.26 0.25 0.27 0.26 0.24 0.23 0.21 0.18 0.18 0.16 0.16 0.15 0.13 0.13 0.12 0.12 0.14 0.14 0.22 0.30 0.42 0.48 0.52 0.55 0.61 0.73 0.85 0.91 0.98 1.13 1.17 1.18 1.20 1.35
0.67 0.68 0.64 0.67 0.67 0.67 0.66 0.68 0.65 0.63 0.55 0.54 0.45 0.38 0.29 0.20 0.20 0.31 0.25 0.23 0.22 0.26 0.25 0.23 0.23 0.22 0.22 0.19 0.22 0.21 0.18 0.22 0.18 0.18 0.17 0.21 0.20 0.22 0.25 0.24 0.19 0.20 0.15 0.18 0.18 0.20 0.16 0.16 0.19 0.21 0.22 0.38 0.34 0.32 0.30 0.27 0.29 0.28 0.30 0.27 0.25 0.23 0.20 0.17 0.18 0.15 0.12 0.14 0.16 0.12 0.12 0.12 0.14 0.18 0.35 0.41 0.54 0.56 0.58 0.61 0.70 0.76 0.94 1.11 1.14 1.23 1.19 1.24
0.69 0.71 0.65 0.68 0.73 0.75 0.71 0.63 0.62 0.60 0.55 0.47 0.40 0.34 0.24 0.23 0.26 0.24 0.26 0.25 0.25 0.25 0.23 0.26 0.22 0.21 0.20 0.22 0.22 0.22 0.20 0.19 0.20 0.16 0.17 0.17 0.19 0.21 0.26 0.30 0.25 0.18 0.20 0.14 0.17 0.19 0.20 0.21 0.25 0.29 0.24 0.32 0.34 0.35 0.35 0.32 0.31 0.33 0.33 0.32 0.28 0.26 0.28 0.22 0.24 0.21 0.19 0.18 0.15 0.16 0.12 0.12 0.16 0.23 0.27 0.37 0.44 0.48 0.58 0.59 0.64 0.67 0.76 1.04 1.11 1.13 1.10 1.18
0.70 0.71 0.69 0.66 0.64 0.64 0.62 0.61 0.60 0.59 0.51 0.43 0.36 0.29 0.26 0.28 0.24 0.28 0.26 0.29 0.27 0.24 0.24 0.25 0.23 0.20 0.20 0.21 0.25 0.22 0.23 0.17 0.20 0.16 0.18 0.16 0.27 0.27 0.34 0.31 0.24 0.20 0.20 0.16 0.24 0.18 0.16 0.13 0.27 0.37 0.34 0.30 0.33 0.35 0.34 0.32 0.24 0.30 0.33 0.27 0.28 0.35 0.31 0.26 0.26 0.30 0.30 0.24 0.19 0.22 0.20 0.18 0.17 0.21 0.27 0.31 0.36 0.42 0.45 0.55 0.63 0.67 0.69 0.85 1.08 1.12 1.11 1.14
0.66 0.68 0.63 0.64 0.61 0.62 0.60 0.60 0.60 0.55 0.49 0.44 0.36 0.29 0.32 0.31 0.33 0.30 0.31 0.28 0.27 0.27 0.24 0.18 0.21 0.20 0.20 0.19 0.22 0.23 0.23 0.19 0.18 0.16 0.15 0.21 0.17 0.23 0.25 0.27 0.25 0.22 0.22 0.19 0.17 0.25 0.24 0.23 0.25 0.29 0.33 0.37 0.37 0.36 0.39 0.37 0.31 0.33 0.29 0.31 0.37 0.38 0.35 0.28 0.22 0.24 0.25 0.22 0.23 0.25 0.21 0.21 0.20 0.14 0.20 0.25 0.31 0.35 0.41 0.45 0.56 0.62 0.67 0.75 0.97 1.09 1.10 1.06
0.64 0.67 0.60 0.60 0.60 0.61 0.59 0.60 0.56 0.54 0.50 0.41 0.31 0.33 0.36 0.29 0.34 0.32 0.33 0.30 0.28 0.28 0.23 0.21 0.23 0.24 0.21 0.20 0.19 0.23 0.24 0.15 0.21 0.20 0.17 0.19 0.21 0.30 0.27 0.24 0.28 0.23 0.22 0.24 0.17 0.27 0.24 0.16 0.23 0.28 0.30 0.36 0.40 0.37 0.36 0.41 0.37 0.27 0.32 0.40 0.31 0.26 0.24 0.29 0.26 0.20 0.20 0.19 0.21 0.26 0.26 0.25 0.25 0.22 0.22 0.23 0.27 0.31 0.37 0.43 0.46 0.50 0.60 0.69 0.78 0.97 1.11 1.11
0.69 0.67 0.54 0.59 0.64 0.59 0.58 0.58 0.52 0.48 0.42 0.35 0.33 0.30 0.32 0.32 0.34 0.31 0.32 0.31 0.30 0.27 0.22 0.23 0.22 0.25 0.23 0.20 0.23 0.24 0.24 0.19 0.21 0.20 0.17 0.19 0.15 0.29 0.28 0.27 0.25 0.26 0.23 0.21 0.18 0.20 0.24 0.16 0.16 0.22 0.24 0.28 0.33 0.35 0.29 0.34 0.39 0.37 0.32 0.35 0.40 0.34 0.29 0.25 0.27 0.24 0.25 0.21 0.21 0.19 0.24 0.21 0.27 0.30 0.31 0.27 0.26 0.28 0.30 0.33 0.39 0.42 0.48 0.56 0.65 0.73 0.91 1.00
0.65 0.58 0.49 0.64 0.64 0.58 0.57 0.57 0.50 0.45 0.38 0.31 0.34 0.32 0.35 0.31 0.32 0.34 0.33 0.31 0.28 0.26 0.25 0.25 0.26 0.22 0.24 0.22 0.23 0.20 0.22 0.22 0.20 0.21 0.20 0.21 0.19 0.28 0.27 0.30 0.24 0.24 0.23 0.22 0.19 0.24 0.19 0.24 0.15 0.20 0.22 0.22 0.20 0.27 0.31 0.33 0.31 0.31 0.28 0.30 0.36 0.38 0.37 0.32 0.31 0.26 0.24 0.22 0.22 0.21 0.20 0.21 0.26 0.32 0.33 0.32 0.30 0.29 0.28 0.28 0.30 0.36 0.42 0.49 0.52 0.59 0.74 0.90
0.68 0.57 0.52 0.67 0.62 0.58 0.58 0.52 0.46 0.37 0.33 0.36 0.37 0.34 0.34 0.31 0.32 0.32 0.32 0.31 0.30 0.31 0.27 0.26 0.26 0.23 0.25 0.23 0.23 0.25 0.22 0.23 0.23 0.21 0.20 0.20 0.19 0.19 0.32 0.30 0.27 0.22 0.22 0.20 0.19 0.20 0.17 0.19 0.15 0.18 0.20 0.22 0.21 0.28 0.32 0.33 0.36 0.36 0.31 0.28 0.34 0.36 0.34 0.27 0.23 0.31 0.28 0.24 0.21 0.24 0.23 0.28 0.32 0.34 0.28 0.27 0.30 0.30 0.29 0.28 0.29 0.31 0.33 0.41 0.50 0.55 0.64 0.78
0.58 0.46 0.52 0.66 0.61 0.59 0.52 0.41 0.36 0.40 0.36 0.33 0.30 0.32 0.32 0.35 0.31 0.31 0.32 0.32 0.29 0.29 0.31 0.23 0.25 0.21 0.23 0.23 0.24 0.24 0.24 0.23 0.22 0.22 0.23 0.20 0.24 0.22 0.32 0.31 0.28 0.25 0.20 0.19 0.22 0.27 0.29 0.28 0.22 0.17 0.18 0.22 0.27 0.29 0.32 0.36 0.36 0.37 0.38 0.34 0.37 0.40 0.41 0.33 0.24 0.26 0.28 0.28 0.28 0.29 0.27 0.28 0.38 0.36 0.36 0.32 0.28 0.28 0.30 0.27 0.27 0.28 0.28 0.30 0.43 0.57 0.65 0.73
0.52 0.47 0.63 0.63 0.60 0.56 0.48 0.38 0.39 0.37 0.33 0.35 0.38 0.35 0.35 0.34 0.31 0.30 0.31 0.32 0.30 0.33 0.29 0.28 0.27 0.28 0.28 0.28 0.28 0.26 0.27 0.23 0.24 0.23 0.23 0.24 0.26 0.28 0.33 0.31 0.30 0.25 0.23 0.20 0.20 0.26 0.33 0.25 0.20 0.21 0.27 0.28 0.33 0.38 0.37 0.36 0.41 0.41 0.41 0.42 0.41 0.34 0.38 0.40 0.35 0.33 0.30 0.29 0.28 0.28 0.24 0.29 0.37 0.42 0.44 0.39 0.33 0.29 0.33 0.31 0.27 0.27 0.28 0.30 0.35 0.47 0.61 0.70
0.55 0.54 0.55 0.62 0.62 0.57 0.46 0.35 0.34 0.34 0.34 0.35 0.35 0.34 0.34 0.35 0.34 0.32 0.31 0.33 0.32 0.30 0.28 0.28 0.29 0.32 0.28 0.31 0.28 0.25 0.28 0.22 0.27 0.25 0.25 0.27 0.25 0.36 0.32 0.33 0.32 0.22 0.24 0.28 0.26 0.36 0.22 0.24 0.22 0.20 0.20 0.19 0.20 0.26 0.30 0.36 0.35 0.33 0.33 0.38 0.40 0.39 0.34 0.41 0.44 0.42 0.34 0.33 0.34 0.30 0.23 0.26 0.36 0.49 0.46 0.40 0.35 0.31 0.28 0.27 0.28 0.27 0.31 0.35 0.36 0.44 0.55 0.67
0.57 0.64 0.56 0.56 0.58 0.53 0.41 0.39 0.37 0.36 0.35 0.33 0.34 0.31 0.33 0.36 0.38 0.35 0.33 0.32 0.34 0.33 0.28 0.30 0.32 0.31 0.28 0.29 0.28 0.28 0.28 0.26 0.24 0.27 0.28 0.29 0.30 0.36 0.33 0.35 0.35 0.26 0.28 0.34 0.34 0.35 0.27 0.29 0.26 0.18 0.14 0.13 0.12 0.12 0.15 0.20 0.26 0.31 0.33 0.36 0.41 0.40 0.38 0.33 0.33 0.39 0.32 0.36 0.42 0.36 0.30 0.34 0.35 0.44 0.50 0.47 0.38 0.35 0.31 0.31 0.31 0.29 0.29 0.30 0.41 0.46 0.52 0.63
0.49 0.42 0.49 0.50 0.51 0.48 0.45 0.46 0.40 0.37 0.35 0.34 0.33 0.32 0.33 0.32 0.36 0.36 0.34 0.32 0.35 0.34 0.31 0.31 0.31 0.31 0.29 0.30 0.29 0.29 0.29 0.32 0.28 0.27 0.29 0.28 0.30 0.33 0.35 0.36 0.34 0.30 0.35 0.36 0.30 0.28 0.24 0.26 0.28 0.28 0.24 0.21 0.21 0.37 0.39 0.37 0.35 0.33 0.36 0.32 0.34 0.40 0.41 0.40 0.37 0.36 0.34 0.37 0.37 0.40 0.41 0.40 0.36 0.39 0.44 0.46 0.47 0.37 0.29 0.26 0.31 0.34 0.36 0.35 0.35 0.51 0.59 0.62
0.55 0.45 0.43 0.38 0.48 0.46 0.42 0.43 0.39 0.39 0.35 0.37 0.34 0.33 0.31 0.32 0.31 0.35 0.39 0.32 0.39 0.32 0.32 0.29 0.31 0.28 0.31 0.31 0.30 0.32 0.32 0.31 0.34 0.31 0.30 0.30 0.34 0.36 0.39 0.38 0.37 0.35 0.35 0.29 0.28 0.23 0.22 0.21 0.22 0.23 0.26 0.29 0.29 0.33 0.40 0.38 0.33 0.34 0.33 0.36 0.40 0.41 0.42 0.40 0.38 0.36 0.42 0.41 0.33 0.42 0.46 0.48 0.51 0.47 0.47 0.50 0.50 0.45 0.32 0.28 0.26 0.34 0.40 0.38 0.38 0.45 0.58 0.76
0.46 0.48 0.52 0.52 0.44 0.36 0.42 0.36 0.40 0.38 0.38 0.39 0.33 0.37 0.31 0.30 0.30 0.29 0.34 0.36 0.33 0.35 0.28 0.33 0.33 0.34 0.35 0.33 0.33 0.27 0.30 0.30 0.32 0.30 0.35 0.35 0.36 0.37 0.37 0.39 0.36 0.36 0.35 0.31 0.33 0.26 0.23 0.20 0.21 0.20 0.20 0.22 0.26 0.29 0.32 0.34 0.32 0.31 0.34 0.37 0.35 0.39 0.44 0.41 0.41 0.45 0.46 0.40 0.36 0.43 0.48 0.48 0.51 0.56 0.57 0.61 0.64 0.54 0.39 0.52 0.56 0.49 0.49 0.59 0.58 0.52 0.52 0.62
0.56 0.53 0.52 0.56 0.44 0.44 0.42 0.40 0.41 0.39 0.37 0.39 0.32 0.32 0.31 0.30 0.30 0.32 0.31 0.31 0.33 0.32 0.33 0.26 0.31 0.34 0.35 0.34 0.31 0.28 0.28 0.22 0.25 0.31 0.31 0.32 0.33 0.34 0.34 0.36 0.36 0.36 0.36 0.32 0.31 0.31 0.27 0.22 0.22 0.22 0.21 0.22 0.22 0.23 0.28 0.28 0.29 0.29 0.29 0.34 0.39 0.38 0.41 0.46 0.48 0.48 0.49 0.47 0.49 0.51 0.51 0.50 0.54 0.57 0.78 0.79 0.80 0.75 0.72 0.64 0.59 0.61 0.70 0.75 0.74 0.60 0.51 0.52
0.50 0.53 0.46 0.53 0.50 0.45 0.44 0.43 0.40 0.39 0.35 0.37 0.35 0.29 0.33 0.32 0.32 0.33 0.36 0.32 0.28 0.33 0.36 0.31 0.34 0.35 0.33 0.32 0.31 0.28 0.31 0.31 0.30 0.26 0.35 0.34 0.34 0.35 0.33 0.33 0.34 0.37 0.35 0.32 0.32 0.34 0.28 0.22 0.23 0.22 0.20 0.19 0.20 0.21 0.22 0.24 0.26 0.27 0.28 0.30 0.36 0.39 0.38 0.43 0.45 0.46 0.47 0.46 0.49 0.50 0.53 0.51 0.62 0.72 0.81 0.91 0.85 0.81 0.68 0.71 0.73 0.88 0.87 0.84 0.85 0.82 0.75 0.89
0.64 0.67 0.64 0.53 0.44 0.44 0.45 0.43 0.39 0.38 0.35 0.36 0.36 0.33 0.36 0.33 0.33 0.34 0.33 0.35 0.31 0.31 0.33 0.30 0.34 0.32 0.34 0.34 0.33 0.31 0.34 0.35 0.35 0.34 0.36 0.36 0.31 0.39 0.34 0.36 0.38 0.32 0.33 0.31 0.32 0.34 0.32 0.25 0.26 0.24 0.19 0.18 0.20 0.19 0.19 0.20 0.22 0.24 0.28 0.30 0.32 0.35 0.33 0.38 0.41 0.44 0.43 0.43 0.47 0.50 0.48 0.51 0.60 0.70 0.76 0.87 0.83 0.77 0.70 0.70 0.77 0.87 1.00 1.00 0.89 0.89 0.93 0.98
0.71 0.71 0.70 0.60 0.41 0.46 0.44 0.43 0.41 0.42 0.33 0.37 0.37 0.37 0.36 0.36 0.38 0.38 0.33 0.41 0.34 0.36 0.37 0.36 0.38 0.34 0.32 0.33 0.35 0.37 0.40 0.39 0.37 0.36 0.36 0.37 0.38 0.38 0.38 0.36 0.36 0.33 0.32 0.31 0.35 0.30 0.29 0.24 0.22 0.22 0.19 0.17 0.19 0.20 0.19 0.18 0.17 0.16 0.20 0.28 0.30 0.35 0.37 0.37 0.41 0.45 0.47 0.48 0.45 0.44 0.46 0.54 0.63 0.74 0.80 0.77 0.82 0.82 0.76 0.85 0.95 0.99 1.09 0.98 0.94 0.98 0.93 0.90
Wind_Speed
15 15 15 15 15 14 14 14 14 14 13 13 13 13 13 13 13 13 12 12 12 11 11 11 10 10 10 10 10 10 10 11 11 11 12 11 10 11 12 12 14 16 15 14 15 15 16 17 17 17 16 16 15 15 14 14 13 11 10 9 8 7 6 4 4 5 4 6 9 9 9 8 8 7 7 8 7 7 7 6 6 4 4 7 9 13 15 16
16 16 16 16 15 15 15 14 14 14 14 14 13 13 13 13 13 13 13 13 12 12 12 11 11 10 10 10 10 10 10 11 12 13 13 11 11 12 13 13 14 16 17 16 16 17 16 16 17 16 16 15 15 15 14 14 14 13 11 10 8 5 7 8 4 5 6 7 10 10 9 8 8 8 7 8 7 8 7 6 7 5 6 9 11 13 15 16
16 16 16 16 16 15 15 15 15 14 14 14 14 14 14 13 13 13 13 13 13 13 12 12 11 11 10 10 10 10 10 11 12 12 11 11 12 13 13 14 15 17 18 17 17 17 17 16 16 16 16 15 15 15 14 14 14 14 13 11 7 6 8 8 5 5 6 8 9 10 9 7 7 8 8 8 8 8 8 7 8 7 8 10 11 13 15 17
16 16 16 16 16 16 15 15 15 15 15 14 14 14 14 14 14 14 14 13 13 13 12 12 12 12 12 12 11 11 11 12 12 9 9 11 13 13 13 14 16 18 19 17 17 17 17 16 17 16 15 14 15 15 15 14 14 13 14 12 7 6 9 7 5 5 5 6 8 9 9 8 8 8 8 8 8 8 7 8 8 9 10 11 12 13 14 16
17 17 17 17 16 16 16 15 15 15 15 15 15 15 15 15 15 15 14 14 14 13 13 13 13 13 13 12 12 12 12 11 10 8 9 11 12 13 14 15 16 18 19 18 18 18 17 17 17 17 15 14 14 15 16 16 15 13 14 14 10 9 8 7 7 6 5 5 7 8 8 9 9 8 8 7 6 6 7 8 9 10 10 11 12 13 14 16
17 17 17 17 16 16 16 16 15 15 15 15 15 15 15 15 15 15 15 15 14 14 13 13 12 12 12 12 12 13 13 11 8 9 10 10 12 14 14 15 16 18 19 19 19 19 19 18 18 18 16 15 15 15 15 16 15 14 14 13 13 12 9 8 8 8 7 7 7 8 8 8 9 9 8 7 5 6 7 8 10 10 11 12 12 13 14 16
17 17 17 17 17 16 16 16 16 15 15 16 16 16 16 16 15 15 15 15 15 14 14 13 13 12 12 13 13 13 15 13 9 9 10 10 12 14 14 16 17 18 19 19 20 20 20 20 19 18 17 16 16 15 15 15 16 15 14 13 12 12 12 11 10 10 9 9 8 8 9 10 9 9 9 8 6 6 7 8 10 11 11 12 12 13 14 16
18 18 18 18 17 17 16 16 16 16 16 16 16 16 16 16 16 16 15 15 15 14 14 13 13 13 12 13 13 14 15 13 10 10 11 11 12 13 15 16 18 18 19 19 20 20 20 20 20 19 18 17 16 16 15 15 15 16 16 14 13 12 13 13 12 11 11 10 9 9 10 10 9 9 9 9 8 7 7 9 10 11 12 12 12 13 14 16
18 18 18 18 18 17 17 16 16 16 16 16 17 17 17 17 16 16 15 15 15 14 13 13 13 13 13 13 14 15 13 12 12 12 12 12 12 13 15 17 19 19 19 19 20 20 20 20 21 19 18 18 17 17 16 15 14 15 17 16 15 14 13 14 14 13 12 11 11 11 10 10 10 10 10 9 9 7 8 9 9 11 12 12 12 13 14 16
19 19 19 19 18 18 17 17 17 17 17 17 17 17 17 17 16 16 15 15 14 14 13 13 13 13 13 14 14 14 12 12 13 13 13 13 12 14 16 17 19 20 19 19 20 21 20 20 20 20 19 18 17 17 17 17 13 12 14 16 16 16 15 14 14 14 13 13 12 12 11 11 11 11 10 10 9 9 10 10 10 11 12 12 12 13 14 15
20 20 20 19 19 18 18 18 17 17 17 17 18 17 17 16 16 16 15 15 14 14 14 14 14 14 14 15 16 13 12 14 14 14 14 14 14 15 16 17 19 20 19 20 20 21 21 20 19 19 19 18 18 18 18 19 17 14 13 14 16 17 17 16 15 15 14 14 14 13 12 10 11 12 11 11 11 10 11 11 11 11 11 12 13 13 13 14
20 21 20 20 20 19 19 19 18 18 18 18 18 17 17 16 15 15 15 14 14 14 14 14 14 14 14 16 16 13 13 14 14 14 15 15 16 17 17 18 19 20 19 19 20 21 22 20 19 20 18 16 17 17 17 19 19 18 16 14 15 16 18 19 18 17 15 15 15 15 14 12 13 13 11 12 13 12 12 12 12 12 12 12 13 13 13 15
21 21 21 21 20 20 19 19 19 19 19 19 18 18 17 16 15 15 14 14 14 14 14 14 14 14 15 15 13 13 14 14 14 15 15 16 16 17 18 18 19 20 20 20 20 21 22 21 20 21 20 17 17 15 14 17 19 19 18 15 15 15 17 19 19 19 18 16 16 16 14 13 14 14 12 12 13 14 14 14 13 13 13 13 13 13 14 15
21 22 22 21 21 20 20 20 20 20 19 19 19 18 17 16 15 14 14 14 13 13 13 13 14 14 16 15 12 13 14 15 16 16 15 16 17 18 19 19 20 21 20 20 20 20 22 22 21 22 21 20 19 16 15 18 18 18 18 17 16 15 15 17 19 19 19 17 17 17 15 13 14 15 15 12 13 15 15 14 14 14 14 14 14 14 14 15
22 22 22 22 21 21 20 20 20 21 20 19 19 18 17 16 15 14 14 14 13 13 13 13 14 15 16 14 13 13 14 15 16 16 16 17 18 18 19 20 21 22 21 21 20 20 21 22 22 21 21 22 21 18 16 18 19 18 19 18 17 16 15 16 18 19 19 17 18 19 15 13 14 15 15 14 14 16 16 16 16 15 16 15 15 14 14 15
22 22 22 22 22 21 21 21 21 21 21 19 19 18 17 16 15 15 15 14 13 13 13 14 14 15 15 13 13 14 14 14 15 16 17 18 19 18 19 20 21 22 21 21 21 21 21 21 22 22 21 21 21 19 18 19 19 19 19 18 18 18 17 15 16 19 20 18 19 20 16 14 14 14 15 16 17 18 17 17 16 16 17 16 15 15 15 15
23 23 23 22 22 21 21 21 21 21 21 20 19 18 17 16 15 15 15 14 14 14 14 15 15 16 15 14 14 14 14 14 14 16 17 18 19 19 19 20 21 21 21 22 22 21 22 22 21 21 21 21 20 20 20 20 19 19 20 19 18 18 18 17 15 16 20 20 19 20 18 16 14 14 16 17 19 19 17 17 17 17 17 16 16 15 15 16
23 23 23 22 22 21 21 21 21 21 21 20 19 18 17 16 16 16 15 14 15 15 16 15 15 16 15 14 14 14 14 14 14 15 16 17 19 19 20 20 21 21 22 22 22 23 23 22 22 21 21 22 21 21 21 21 19 19 20 19 19 19 19 19 17 16 19 21 21 20 19 17 16 15 17 18 19 19 18 17 18 19 18 17 16 16 15 16
23 23 23 22 22 21 21 20 20 20 20 19 18 18 16 16 16 16 15 15 15 15 14 14 15 15 14 14 15 15 15 15 15 16 16 17 18 20 20 20 21 22 22 21 22 24 23 22 23 23 22 22 23 23 22 21 20 20 21 20 20 20 19 20 19 17 18 20 21 21 19 18 18 16 17 20 20 19 19 18 19 19 18 17 17 17 16 16
24 23 23 23 22 21 21 20 20 20 19 17 17 17 16 16 15 14 15 16 15 14 14 14 15 16 16 16 16 16 17 17 16 16 16 17 18 19 20 21 22 22 22 22 22 24 24 24 25 24 23 23 24 24 24 23 21 19 20 21 22 22 21 20 20 19 18 19 20 22 21 20 20 18 19 21 20 19 20 19 20 20 18 17 17 17 17 17
24 24 23 23 23 22 21 20 20 19 18 16 17 15 14 14 14 14 15 16 15 15 16 15 15 16 16 16 16 16 16 16 15 15 16 17 18 19 20 21 22 22 23 23 22 23 25 26 26 26 25 24 24 25 25 25 23 20 19 20 21 22 22 20 20 20 19 17 18 21 22 21 20 19 20 20 19 20 21 22 22 21 19 18 18 18 18 17
24 24 24 23 23 22 21 21 20 19 18 16 15 14 13 14 15 15 16 17 16 16 16 16 17 17 16 16 16 16 17 16 15 15 16 18 19 19 20 21 23 23 24 25 23 23 26 27 27 26 26 25 24 24 26 26 25 23 21 20 20 20 21 21 21 21 20 18 18 20 21 22 21 21 21 21 20 20 22 23 22 21 19 18 18 18 18 18
24 24 24 23 23 23 21 21 20 19 17 16 14 14 15 15 16 17 17 18 17 16 17 17 17 16 16 16 16 16 18 17 16 15 16 18 19 21 21 21 24 24 24 26 26 25 25 26 27 26 26 27 26 25 25 26 25 24 23 22 21 20 20 20 20 22 22 20 18 19 20 21 21 22 22 22 21 21 23 24 22 20 19 18 19 18 18 18
25 25 24 24 23 23 21 21 20 17 16 16 14 14 16 16 17 17 17 18 18 17 17 17 17 17 16 16 17 17 17 17 17 16 16 18 19 20 22 22 24 25 25 27 28 27 26 24 25 28 28 27 28 26 25 25 24 25 25 24 23 22 21 21 20 21 22 22 21 20 20 20 21 22 22 22 22 22 23 24 23 21 21 19 19 19 19 19
25 25 24 24 23 22 21 19 17 16 17 16 15 15 17 17 17 17 18 18 17 17 16 16 17 17 17 17 17 18 17 18 18 17 17 19 18 19 21 22 23 24 25 27 29 28 27 25 23 26 29 29 28 27 27 25 23 24 27 27 25 24 23 22 22 21 20 23 24 23 22 20 21 23 22 21 23 24 23 24 24 22 22 21 20 20 20 20
25 25 24 24 24 22 21 17 16 17 18 16 15 17 17 17 17 17 17 17 17 16 15 16 17 16 16 17 16 16 17 18 18 18 18 19 19 20 20 21 23 24 25 25 27 27 27 27 25 25 27 29 29 28 28 27 25 23 24 25 27 27 26 24 24 23 21 20 21 24 23 21 20 23 23 23 24 25 24 24 24 23 22 21 21 21 21 21
24 24 24 24 23 21 19 17 17 18 17 15 16 18 17 17 16 15 16 17 16 16 15 15 15 15 16 16 16 17 16 16 17 18 18 17 19 20 20 21 22 23 24 24 25 26 27 29 29 27 27 28 29 28 28 28 26 24 22 22 25 27 29 27 25 24 23 22 22 23 24 23 22 22 23 25 26 26 25 24 23 24 24 23 22 22 22 22
23 23 23 23 22 20 18 17 18 17 15 16 17 17 16 16 15 14 15 15 14 15 15 14 15 16 17 17 17 18 17 17 17 17 17 18 19 20 21 22 22 22 24 25 25 24 26 30 31 29 28 28 28 27 27 28 28 25 23 22 22 24 27 28 27 24 23 24 25 25 24 23 23 23 22 24 27 28 27 26 24 25 26 25 24 23 23 22
22 23 22 22 21 19 17 17 17 16 15 16 16 15 14 13 13 13 15 15 13 13 14 14 15 16 17 17 17 17 18 18 18 17 18 20 20 20 21 22 23 23 24 26 27 25 24 27 30 31 29 28 29 28 28 29 28 26 25 23 21 21 23 25 27 26 25 26 27 27 26 23 22 23 23 23 25 27 28 26 25 26 26 25 25 24 23 23
22 22 22 21 18 16 16 15 14 14 14 14 14 13 12 11 11 13 14 13 11 12 13 13 14 14 15 17 16 16 17 18 19 19 20 20 20 21 22 22 22 23 24 26 28 28 27 25 27 31 31 29 28 29 29 30 29 27 27 26 23 22 23 23 24 26 26 28 30 30 29 26 22 22 23 24 24 24 25 26 25 26 27 27 26 25 25 24
23 23 22 19 16 15 15 14 12 13 13 13 12 12 11 10 11 13 13 11 11 11 12 12 12 13 14 15 15 14 16 17 17 19 19 19 20 21 21 21 22 23 24 26 27 29 30 29 26 28 31 30 29 29 30 29 29 28 27 26 25 23 23 23 24 26 27 28 29 30 32 30 26 22 22 24 25 23 23 25 26 26 27 27 26 26 26 25
23 23 21 18 16 15 14 13 13 13 12 12 12 11 10 11 12 13 12 11 11 11 11 10 10 11 13 14 15 15 16 16 15 17 18 17 18 19 19 19 20 21 22 23 25 27 30 32 30 28 30 32 30 28 29 29 29 29 28 27 26 24 23 24 25 26 27 27 27 28 31 32 30 26 23 23 24 24 23 23 25 26 27 27 27 26 26 26
23 22 19 16 15 14 13 14 14 13 12 11 11 10 10 11 11 11 10 9 10 10 10 10 10 11 12 14 14 14 16 16 15 16 17 18 18 18 18 19 20 21 21 20 22 24 26 29 33 32 30 32 33 30 29 29 29 30 29 29 28 25 24 25 25 25 26 27 27 28 29 30 30 29 28 26 24 23 24 24 25 26 27 27 27 27 26 27
23 21 17 14 14 13 13 13 12 12 11 10 10 9 10 11 10 9 9 8 8 10 11 11 12 13 13 13 13 13 15 15 15 16 17 18 19 19 19 18 19 22 22 21 22 23 23 24 29 33 32 31 34 33 30 29 29 30 30 29 30 28 25 24 24 25 25 25 27 29 30 29 28 27 28 30 27 25 24 23 25 26 26 26 27 27 27 27
22 18 14 13 12 12 12 12 11 10 10 9 8 9 10 11 9 9 9 8 9 10 11 12 13 14 13 12 12 13 14 14 13 15 17 17 17 18 18 16 16 19 21 22 22 23 25 23 21 27 31 32 34 35 33 31 30 29 30 31 32 31 28 25 24 25 25 24 25 28 29 28 27 25 26 29 30 30 27 23 22 25 27 26 26 27 27 27
19 15 12 11 11 11 10 10 9 8 8 8 8 9 8 8 8 8 8 9 10 10 11 12 13 13 12 12 11 12 14 15 15 15 16 17 16 16 16 15 15 17 19 21 21 22 25 25 20 21 28 31 33 34 35 35 31 28 30 33 33 31 30 28 26 25 25 25 24 25 27 27 27 26 27 28 28 30 31 28 24 24 27 27 26 26 27 28
17 13 11 10 10 10 9 8 7 7 7 7 8 8 7 7 8 9 9 10 10 10 12 12 10 10 12 12 11 10 11 14 15 15 15 16 17 16 16 16 16 17 18 19 21 21 22 24 24 24 26 29 31 33 34 36 35 30 29 29 30 31 31 30 27 26 26 25 24 24 25 26 26 26 27 29 29 28 30 30 28 26 26 27 27 26 26 28
16 13 9 8 10 10 8 6 6 5 6 7 7 7 7 7 7 8 9 10 10 10 11 11 10 9 11 12 11 10 11 13 12 13 16 16 16 17 17 17 16 16 18 19 20 21 22 24 25 25 27 27 29 30 31 34 39 37 30 25 27 31 32 31 29 27 26 25 23 24 25 25 25 24 26 29 30 29 28 29 30 29 28 28 28 27 27 28
15 11 7 8 10 9 7 5 5 5 5 7 6 5 5 6 6 7 8 9 10 10 10 10 10 10 11 12 12 11 11 13 13 12 14 15 15 16 17 18 17 16 17 19 20 20 21 24 25 26 27 27 28 29 30 31 35 38 35 29 27 29 30 32 32 29 27 25 23 23 25 25 25 24 24 27 29 30 30 29 30 31 31 31 30 28 28 28
12 9 7 10 10 7 5 5 5 5 5 6 5 4 4 5 5 6 7 8 9 10 9 9 9 11 11 11 13 13 11 12 14 14 14 15 16 17 17 18 19 18 18 19 21 22 21 23 25 26 26 28 29 29 31 31 30 33 37 35 30 28 28 30 32 32 30 26 23 21 22 23 24 25 26 26 25 27 30 29 28 30 31 32 32 31 30 29
11 8 8 10 9 6 6 6 5 5 5 4 4 4 5 5 5 6 6 7 9 9 9 11 11 11 12 12 12 13 13 14 15 16 17 17 17 18 18 18 19 20 20 20 21 21 22 23 24 25 26 28 30 30 31 33 31 31 34 36 34 30 29 29 30 33 33 31 27 23 21 20 19 22 26 27 24 22 25 29 28 29 30 31 31 32 32 31
10 8 9 10 8 6 6 5 3 4 4 3 3 4 5 6 6 7 6 7 8 8 8 11 11 11 13 14 14 14 16 17 18 18 19 18 18 18 17 18 20 21 21 22 21 20 21 22 23 25 26 27 28 29 31 32 32 31 32 34 35 33 31 29 29 30 31 32 31 27 24 20 16 16 19 23 25 23 22 25 27 28 30 31 30 31 31 32
9 8 8 8 7 6 6 3 3 4 4 4 4 4 5 6 6 6 7 7 8 8 9 10 11 11 13 14 15 16 17 19 20 20 21 21 20 18 17 17 20 21 21 22 22 20 21 23 24 24 25 28 29 28 31 32 32 32 32 33 35 35 34 31 29 29 29 31 31 28 27 23 18 16 17 18 22 23 21 22 24 25 26 29 31 30 30 31
9 8 7 7 7 6 4 3 3 4 4 4 4 4 5 6 7 7 8 8 8 9 10 12 11 12 14 15 16 18 18 19 20 20 21 22 21 20 21 21 21 22 22 21 21 20 21 24 25 24 23 25 28 29 31 33 33 34 34 34 36 37 37 35 30 29 29 30 29 28 28 27 21 16 16 17 19 20 20 21 23 24 24 26 28 30 30 30
9 7 6 6 6 5 4 4 5 3 4 4 4 5 5 6 7 8 9 9 10 11 12 12 13 14 16 17 18 19 20 20 20 20 21 22 21 21 22 22 22 24 22 21 23 23 23 23 24 25 24 24 25 25 27 28 29 32 35 37 38 39 39 37 33 31 31 30 29 27 26 28 28 23 19 19 19 19 18 18 20 22 23 24 25 26 28 30
8 6 6 5 5 5 5 6 6 4 4 4 5 6 7 7 6 7 10 10 10 12 13 13 13 15 17 18 19 19 20 20 21 21 22 23 23 22 22 22 23 24 23 22 25 26 26 27 27 28 28 28 25 23 23 24 26 29 31 34 37 38 39 38 33 33 33 30 30 30 26 25 28 28 24 22 22 21 20 19 20 21 21 24 24 22 24 28
7 6 6 4 4 5 5 6 6 5 4 5 5 6 7 8 8 8 9 9 10 12 13 13 14 15 16 17 18 18 18 19 20 21 22 23 23 24 24 24 24 24 23 24 26 26 27 29 31 32 32 33 31 29 27 27 29 30 31 32 33 33 37 39 37 35 33 31 32 33 29 25 25 25 24 22 21 21 21 19 19 21 20 21 23 23 22 24
7 5 5 4 4 5 5 6 6 6 5 6 5 6 7 8 9 9 9 10 12 12 12 12 14 15 15 16 16 16 16 16 17 18 19 20 20 21 22 23 24 24 24 24 25 26 27 29 30 31 33 34 33 32 31 30 31 32 33 34 33 32 33 35 36 36 35 33 33 33 32 30 26 21 18 18 18 17 17 17 17 19 20 18 19 22 24 24
7 5 4 4 4 5 5 6 6 6 6 6 6 7 8 9 9 9 10 11 12 11 12 13 13 14 14 15 14 14 13 13 14 14 15 16 18 18 19 20 22 23 24 25 25 25 26 28 29 30 31 33 33 33 33 32 32 34 36 36 36 35 34 33 33 35 37 37 36 33 33 32 29 20 14 15 18 16 16 18 18 18 19 19 18 20 22 22
7 6 5 4 4 4 5 6 6 6 6 7 7 8 9 9 10 10 11 11 12 11 11 12 13 13 14 12 11 11 11 12 13 13 13 15 16 16 17 17 18 19 22 23 24 24 25 26 28 28 30 32 32 33 34 34 34 35 37 38 38 38 38 37 34 34 36 39 38 36 35 33 31 25 17 16 19 19 18 19 19 18 18 19 19 19 19 20
8 6 5 5 4 4 5 6 6 6 7 8 8 9 9 9 10 12 11 11 11 11 11 12 13 13 11 9 9 10 10 10 12 13 13 14 15 15 15 15 16 17 18 20 21 24 25 26 26 27 29 30 31 31 33 34 36 38 39 40 40 39 39 39 37 35 36 38 39 39 37 34 32 29 23 19 19 21 21 19 19 19 19 19 21 20 20 21
8 7 6 5 4 5 5 6 6 6 7 8 9 9 9 10 11 12 11 10 10 11 11 12 12 11 9 8 8 9 10 11 12 12 13 14 16 17 17 18 18 18 18 18 19 21 24 26 26 26 28 29 30 31 31 31 34 38 39 39 40 40 40 40 39 38 37 37 38 39 37 34 31 29 27 24 22 22 21 20 19 19 19 20 22 22 21 21
Wind_Direction
324 323 321 318 316 314 313 310 308 306 304 301 298 295 293 291 289 288 288 287 286 285 283 281 277 270 266 264 261 258 254 250 244 237 234 231 230 229 225 221 217 212 209 208 204 201 203 207 209 212 215 218 221 224 224 224 226 226 226 232 233 242 237 223 226 190 169 187 182 184 183 166 165 164 158 163 164 158 157 150 142 138 141 149 156 157 156 158
324 322 320 317 314 313 311 309 308 306 304 301 298 295 293 291 289 287 287 286 284 283 281 279 275 269 266 264 260 256 252 247 244 242 238 232 231 233 228 223 216 209 208 207 204 203 205 207 207 211 216 220 222 223 227 224 226 228 228 236 232 230 225 219 217 158 164 195 181 185 187 172 172 170 171 172 162 164 165 154 149 141 137 145 154 158 160 162
323 321 319 317 314 311 309 308 306 305 303 300 298 295 293 290 289 287 286 285 283 282 279 275 271 268 265 263 260 253 248 248 244 239 237 234 233 234 230 223 215 208 208 207 205 206 207 207 207 210 215 219 220 221 226 224 227 230 230 242 238 236 233 220 222 186 185 198 186 190 189 178 183 180 184 179 170 178 176 166 162 155 150 152 156 161 163 166
323 321 319 317 314 311 308 306 304 303 301 300 298 295 293 290 288 286 285 284 282 280 277 272 268 266 265 263 260 251 247 248 240 231 237 241 234 231 229 222 215 208 208 211 209 209 211 210 209 211 216 219 220 221 226 224 228 230 232 241 236 242 243 217 216 218 212 211 197 198 193 191 196 191 194 187 180 190 182 174 171 164 160 158 161 166 168 170
324 322 320 317 315 312 309 306 304 302 300 299 298 296 293 290 287 285 284 283 281 279 276 271 267 266 265 261 258 249 246 244 235 237 247 246 234 227 225 220 215 209 208 214 213 212 214 213 211 214 218 222 222 222 226 226 229 234 238 240 232 237 241 217 216 224 231 229 209 205 203 201 201 199 203 195 195 211 196 177 173 171 166 163 165 168 172 174
324 322 320 318 315 313 310 307 305 302 300 299 298 296 294 291 288 285 283 282 279 277 274 270 266 265 264 261 257 247 243 241 239 246 247 247 237 225 223 217 214 209 209 216 215 213 215 214 214 216 219 223 226 226 228 228 230 235 240 239 235 237 239 227 224 225 233 232 217 217 222 216 207 205 208 192 189 217 203 176 169 172 169 166 168 170 174 177
323 321 320 318 316 313 310 307 305 303 300 298 297 295 294 291 288 285 282 281 277 276 272 266 264 263 263 260 254 245 241 239 242 248 246 247 239 226 222 216 211 209 210 216 215 213 215 215 216 219 220 224 228 229 231 230 230 234 238 241 239 237 236 234 230 229 233 234 227 221 224 223 213 213 215 194 190 215 195 168 168 170 168 169 171 172 175 179
322 321 319 318 315 313 309 307 304 302 299 297 296 294 293 291 288 285 282 279 276 273 268 263 262 262 261 257 252 246 240 238 243 249 246 244 238 227 220 214 211 210 212 216 215 214 215 216 218 220 222 226 229 231 232 232 232 234 238 242 242 238 236 234 233 235 234 233 234 230 224 218 210 214 216 196 198 215 183 165 171 169 169 171 173 175 176 180
322 320 319 317 315 312 309 306 304 301 299 297 295 293 291 289 286 284 280 278 274 270 265 262 260 259 258 255 253 248 241 243 247 248 245 242 236 224 217 214 211 211 214 217 215 215 215 216 218 220 225 229 231 232 231 230 232 235 236 239 242 241 239 234 235 237 234 232 231 232 228 215 205 209 212 200 198 200 175 169 174 171 173 173 175 178 177 179
321 320 319 317 315 312 309 306 303 301 299 297 295 293 291 288 285 281 278 274 270 266 262 260 259 257 255 252 252 248 244 247 247 245 243 239 232 221 217 216 212 214 218 218 216 216 216 218 219 221 228 233 234 234 230 227 233 237 234 238 242 243 241 236 235 234 232 233 230 228 228 214 208 213 215 207 201 194 179 175 177 175 177 176 176 179 179 180
320 319 317 316 314 312 309 306 304 302 301 299 297 294 291 288 284 280 275 271 266 263 261 259 257 253 252 252 252 251 250 250 246 244 240 234 229 221 220 220 216 217 220 219 218 217 217 219 221 222 228 232 234 235 232 230 236 241 240 242 243 242 242 238 236 233 229 232 232 231 228 217 214 219 217 211 205 197 186 181 180 180 181 179 178 178 180 182
319 318 316 315 313 311 308 305 304 303 302 301 299 296 292 288 284 279 274 269 265 263 261 258 254 250 253 253 251 254 256 249 244 243 238 233 230 225 225 224 220 220 221 221 220 219 219 220 223 224 224 228 230 234 234 233 236 239 242 245 243 241 239 235 233 232 229 230 230 230 230 224 221 218 213 213 208 199 195 190 188 186 184 182 179 179 182 184
318 317 316 315 313 310 307 305 303 302 302 301 300 296 291 287 283 278 274 271 267 264 262 256 250 249 254 253 249 255 255 248 244 242 237 234 231 228 228 226 223 223 223 223 222 222 221 221 225 226 226 228 227 232 237 233 233 235 237 240 242 242 238 233 230 230 229 228 224 225 230 229 226 216 210 214 205 199 202 197 192 189 187 185 181 181 184 185
316 316 315 314 312 309 307 304 302 302 301 300 299 296 290 285 279 276 275 272 266 263 259 254 250 251 255 251 247 253 253 248 243 239 237 235 231 229 228 227 225 224 226 227 225 224 223 223 227 228 230 230 230 238 240 233 230 231 234 236 237 240 240 233 227 227 227 225 219 221 229 234 231 215 206 211 204 201 206 201 197 194 189 187 184 181 184 187
316 315 314 313 311 309 307 305 303 303 302 300 298 294 288 281 275 275 275 270 264 262 257 253 252 254 255 250 246 252 251 247 243 240 240 236 231 230 227 227 226 224 227 229 228 226 223 224 227 228 230 229 233 239 237 230 228 227 229 232 233 235 241 234 224 222 224 222 218 221 229 232 230 215 203 205 205 205 206 205 203 199 192 188 186 184 184 186
316 315 314 313 311 308 306 305 303 302 302 300 297 293 287 279 273 274 276 270 262 259 256 254 255 256 257 253 248 252 251 249 248 243 240 236 233 231 226 226 225 223 226 228 229 227 223 224 226 227 229 228 230 233 232 229 226 225 226 230 231 230 235 234 222 219 222 221 217 223 228 227 227 217 204 202 205 207 206 206 205 203 196 189 188 187 186 186
315 314 313 312 310 307 305 304 302 301 301 300 296 291 285 277 273 274 273 268 260 256 257 258 258 256 256 255 251 254 257 256 252 244 238 236 235 232 225 225 223 222 224 225 227 226 223 223 223 226 228 228 226 226 228 228 224 224 225 228 231 231 231 230 223 217 219 221 220 224 227 227 228 215 206 206 207 208 206 205 207 206 199 191 190 190 188 189
313 313 312 311 309 306 304 302 301 301 299 298 294 288 284 277 274 273 270 266 259 255 257 256 255 255 253 252 253 257 261 258 251 244 238 235 235 231 226 225 223 221 223 224 225 224 223 223 223 225 226 226 225 223 225 226 224 224 224 225 229 231 230 229 226 218 217 222 222 224 225 227 227 216 213 212 209 210 206 205 209 207 199 194 193 193 191 191
312 311 311 310 308 306 303 301 300 300 298 297 293 285 280 276 273 270 266 260 257 257 257 253 253 255 252 252 257 260 259 255 251 246 240 236 234 230 226 226 224 221 222 223 223 222 222 222 223 225 225 224 224 224 226 226 226 228 227 227 227 229 231 229 228 221 217 221 223 224 225 225 225 219 216 213 210 214 210 207 211 207 198 195 196 196 194 194
312 311 310 310 309 306 303 301 299 300 297 295 293 282 276 278 271 265 266 258 256 262 260 257 258 257 253 254 261 262 256 252 250 246 241 237 232 228 226 225 224 223 224 224 223 221 221 223 224 224 225 224 224 225 228 229 230 234 232 231 229 228 231 229 228 223 217 222 226 225 227 227 224 220 216 212 212 216 214 213 212 205 197 196 198 199 196 196
311 311 310 309 309 306 304 301 298 299 296 291 291 284 279 285 274 267 273 263 256 260 258 258 259 257 255 257 261 262 256 249 247 246 241 237 233 229 227 226 224 225 226 225 223 221 222 226 226 225 225 226 226 226 228 230 232 234 232 232 231 228 230 229 227 225 217 221 228 227 229 230 227 224 218 213 215 218 217 218 213 203 198 198 199 200 198 197
311 311 310 309 308 306 303 301 297 297 296 287 287 287 283 285 277 271 273 264 258 258 256 257 256 255 256 255 256 258 255 248 244 245 241 237 234 230 228 228 227 227 225 224 225 222 224 229 228 225 226 227 228 226 227 229 230 231 228 230 232 228 228 228 228 226 220 221 228 227 229 231 229 226 220 217 222 222 220 220 213 202 200 200 199 201 201 198
312 311 310 309 308 306 302 300 296 294 292 287 287 288 284 282 279 273 269 265 262 255 253 254 254 257 257 253 254 257 255 248 244 245 240 238 237 233 233 232 231 230 227 224 226 225 227 229 228 227 226 226 228 227 226 227 228 229 228 228 229 228 228 227 227 227 226 226 229 229 230 231 230 228 224 222 223 223 221 220 213 202 201 202 201 202 203 199
313 312 311 309 307 305 302 299 294 289 285 284 286 289 285 282 279 273 268 267 262 253 253 256 255 258 258 256 256 256 255 248 246 247 241 240 241 235 235 236 233 233 230 227 228 229 230 230 227 226 226 226 227 226 225 227 227 228 229 229 228 228 229 229 229 229 229 229 229 233 236 232 228 228 226 221 220 223 223 218 213 206 205 207 204 203 205 201
313 312 311 309 306 304 302 296 291 289 285 280 285 290 287 282 278 273 268 267 260 250 252 255 254 257 258 256 254 255 255 247 245 248 243 242 243 238 237 238 235 234 232 229 230 232 232 230 227 226 225 225 226 226 225 226 228 228 228 230 231 231 232 232 232 232 232 229 226 229 236 234 227 226 227 222 217 220 222 216 212 207 204 208 208 203 206 205
312 311 310 308 306 304 299 292 290 292 286 280 286 290 287 283 277 270 267 265 256 247 248 252 254 257 256 254 253 254 253 245 244 247 244 243 242 240 239 237 233 234 235 232 233 234 232 230 228 227 225 224 226 227 225 224 228 229 226 227 231 233 235 234 232 232 233 231 226 224 230 235 231 225 225 224 221 219 218 214 210 208 206 211 212 206 207 207
311 311 310 307 306 303 298 293 292 291 285 284 289 289 286 282 273 264 263 261 252 246 247 250 255 257 256 255 254 254 252 248 246 243 242 244 240 238 239 236 233 234 235 235 235 234 232 229 228 227 227 226 226 227 224 222 226 229 227 227 229 230 233 233 232 232 232 234 234 227 226 232 235 229 223 222 223 222 217 213 214 214 212 213 214 210 207 206
312 312 310 308 305 300 295 292 291 290 287 287 288 286 284 277 265 257 258 259 251 247 250 253 257 258 257 256 252 253 254 250 247 243 242 244 241 238 238 238 238 237 234 234 235 233 230 230 229 227 227 228 227 226 223 223 226 229 228 230 231 230 230 231 232 233 232 234 235 230 226 230 234 231 226 221 221 222 218 216 217 216 212 213 215 212 209 207
314 314 312 310 306 299 293 289 287 288 290 288 285 285 282 270 258 252 254 257 251 247 253 257 256 256 256 254 249 253 253 247 247 248 246 244 241 239 240 241 242 241 237 236 236 235 232 231 230 229 229 229 227 226 224 225 227 228 229 231 232 231 230 229 230 232 233 234 233 230 228 232 234 228 226 225 222 221 220 218 217 214 212 214 214 213 212 209
316 315 314 311 306 299 293 286 283 287 290 286 283 284 276 260 253 250 249 251 248 247 253 256 256 256 258 253 246 249 251 247 251 252 248 244 241 239 241 243 242 242 240 238 238 237 237 235 230 229 231 229 227 227 226 226 228 226 227 230 231 231 231 230 230 231 233 234 232 230 230 233 236 229 225 227 226 221 219 219 218 214 212 214 214 214 212 210
318 316 314 309 304 300 293 286 286 290 289 285 282 279 266 254 252 253 252 252 253 250 250 256 258 254 257 255 247 250 250 247 251 251 245 242 239 238 239 238 238 239 240 239 238 236 235 234 231 230 231 229 227 227 226 225 225 225 225 227 229 228 228 230 229 227 231 233 231 230 230 232 235 230 224 225 226 223 219 218 217 213 212 213 215 214 212 211
319 316 313 306 301 299 292 289 292 290 285 282 278 270 261 255 252 253 255 253 253 252 250 257 260 255 258 255 250 255 253 248 251 249 244 242 238 235 236 238 238 239 238 237 236 234 233 233 231 230 229 228 227 225 225 223 222 222 223 223 225 225 224 226 225 225 229 232 231 228 228 231 233 232 228 226 225 223 220 218 217 217 216 214 212 213 212 212
319 315 310 304 300 298 291 290 291 287 283 278 271 263 259 259 256 257 259 254 254 258 256 258 260 260 263 257 251 255 253 249 252 249 243 242 241 237 237 242 244 241 241 241 238 233 231 230 229 229 227 226 225 223 222 221 220 220 221 221 222 222 222 224 224 226 230 232 230 228 228 231 232 231 230 229 227 225 222 219 219 220 217 213 212 213 212 211
319 315 309 303 300 297 293 291 288 284 280 272 264 259 254 256 259 263 265 260 260 262 260 262 264 262 261 259 258 259 253 248 250 250 244 240 240 237 235 240 243 242 243 244 241 237 235 232 227 227 225 223 223 224 223 223 222 222 221 222 224 223 223 225 225 227 230 232 229 226 227 230 230 228 228 229 229 229 227 221 220 221 216 213 213 212 211 210
321 316 309 305 301 299 295 290 285 280 272 263 258 256 255 258 265 266 263 265 269 268 263 264 266 262 255 253 258 260 254 249 250 250 245 241 241 238 235 239 243 242 242 241 240 239 239 238 231 226 224 222 222 224 224 225 226 223 221 223 225 224 225 229 232 232 232 234 231 226 227 230 232 231 228 228 227 226 227 225 220 220 216 212 211 210 212 213
322 318 309 306 307 306 300 291 285 275 263 258 256 257 264 268 274 275 271 273 277 278 273 265 261 258 252 250 255 255 251 252 256 254 244 240 242 240 238 244 246 244 243 242 242 240 238 237 233 227 225 224 224 222 221 224 226 223 221 223 225 225 227 230 235 236 233 234 231 228 228 228 230 231 226 225 226 222 223 223 222 221 215 211 211 212 214 214
324 319 308 308 315 312 304 295 284 269 258 258 258 264 276 277 276 277 276 277 276 276 276 268 258 257 259 259 256 254 257 256 252 249 244 238 238 239 241 243 246 246 246 244 242 240 239 238 234 230 229 228 226 224 222 223 224 224 223 223 223 224 227 228 231 231 229 231 230 228 228 225 225 228 223 221 224 221 220 220 220 221 217 212 212 214 213 211
324 317 306 315 324 315 306 296 280 266 262 264 265 270 278 282 286 284 279 278 275 270 268 264 263 266 266 264 261 261 265 260 251 248 246 240 237 240 244 243 244 247 248 245 241 239 241 240 235 232 232 230 228 227 226 224 222 224 225 224 222 223 224 224 226 227 226 228 229 228 229 226 224 225 221 219 221 220 220 219 219 219 218 216 214 213 211 210
322 314 307 328 331 317 307 296 278 271 269 273 276 275 274 282 297 295 283 277 272 269 270 267 266 265 260 263 269 268 262 259 261 256 248 243 242 243 245 246 246 248 249 246 242 241 241 239 236 234 233 232 229 226 226 224 221 221 224 226 225 225 224 222 224 226 226 228 228 228 228 228 227 225 222 221 221 220 221 220 219 219 219 219 219 217 214 212
324 316 316 334 333 319 305 292 281 282 279 281 286 288 287 288 298 299 290 283 274 268 272 274 266 262 264 267 265 262 259 259 259 256 251 250 248 244 244 247 248 251 253 248 244 243 241 239 237 236 234 231 227 224 224 224 221 218 220 223 223 225 225 224 224 223 225 227 227 228 229 229 229 227 226 224 221 219 220 220 220 220 219 220 220 220 217 215
327 320 324 332 330 318 304 293 289 294 290 284 287 298 302 297 303 308 298 290 281 271 274 276 269 266 270 271 265 260 260 261 259 257 255 253 250 248 247 248 250 253 253 247 242 240 238 238 237 236 233 228 226 225 224 224 223 221 220 221 222 223 223 224 223 221 222 225 226 228 230 229 229 225 223 224 223 220 219 219 219 219 219 220 219 218 218 216
324 322 327 330 327 319 312 307 305 310 313 305 300 315 311 297 301 307 301 293 285 277 275 274 271 271 271 271 272 267 263 264 262 259 258 255 253 252 249 250 253 253 250 245 242 241 238 237 238 236 233 231 230 228 225 224 226 227 225 224 224 223 222 223 223 220 220 223 224 228 230 229 226 217 216 220 221 219 217 215 216 218 219 220 219 217 217 217
333 335 336 337 334 325 320 325 320 322 334 321 303 317 315 303 304 304 303 302 289 280 281 281 279 277 275 275 273 270 268 268 263 258 259 256 252 251 252 255 255 252 248 243 241 243 239 236 238 238 236 236 236 233 229 229 230 229 227 224 223 223 222 223 225 223 222 221 221 223 226 225 220 214 217 219 215 214 215 214 215 216 217 218 218 217 216 216
343 340 342 348 344 330 323 333 328 328 341 327 310 319 315 312 316 309 308 310 299 291 292 291 286 279 277 278 274 271 270 268 262 259 258 255 251 253 256 257 254 250 247 241 239 241 239 235 235 237 236 233 231 231 230 228 227 225 224 222 223 224 224 223 224 225 225 224 223 223 223 220 214 208 211 213 210 211 212 213 215 216 216 215 215 216 216 215
333 334 341 353 355 354 354 349 338 331 339 337 334 332 316 314 319 309 306 309 302 298 298 294 289 285 282 279 277 274 271 268 265 262 259 256 253 253 255 254 250 248 245 242 242 242 240 236 234 233 233 229 225 226 226 226 225 225 225 224 223 223 223 222 222 224 224 225 227 226 221 218 217 216 213 211 213 215 215 215 215 214 214 214 213 214 215 214
336 339 342 349 1 12 15 0 348 337 332 331 334 339 330 324 325 315 308 309 306 301 299 296 291 287 285 282 280 279 276 272 268 264 260 258 254 253 255 254 249 247 246 244 244 241 239 238 236 235 235 233 232 234 232 231 230 227 227 226 223 223 223 222 223 225 224 223 224 224 221 219 220 221 218 215 217 220 217 218 218 214 212 213 213 214 215 212
341 341 344 346 356 6 9 5 359 351 337 328 327 337 337 329 327 324 314 311 313 308 303 301 299 294 291 290 287 284 280 273 267 263 260 257 254 253 253 252 248 246 245 244 242 239 238 238 237 237 238 237 238 241 240 238 234 230 230 228 226 227 226 222 222 224 223 222 221 220 221 222 222 219 215 212 215 217 213 211 215 213 208 208 211 213 212 209
350 350 357 346 338 351 357 0 4 4 358 351 343 338 337 334 331 326 319 315 315 313 310 307 303 299 298 297 293 288 283 274 267 262 259 257 255 254 252 250 248 245 242 241 239 237 239 239 238 238 239 238 238 240 240 238 235 231 230 228 228 228 225 221 222 223 222 223 221 218 218 220 217 212 208 205 204 208 208 203 203 203 198 198 206 208 207 207
0 3 6 349 342 356 359 357 358 3 5 359 353 346 339 337 336 329 324 321 318 317 317 314 310 305 304 302 296 289 284 279 274 268 264 261 259 257 256 253 250 245 242 241 239 238 239 239 238 239 240 239 239 238 238 238 235 232 230 228 227 225 221 220 221 221 222 223 221 219 219 217 213 208 206 206 204 206 207 203 200 201 200 201 207 208 205 206
4 4 2 360 9 11 4 2 357 357 2 352 347 349 343 338 339 335 329 325 323 322 322 321 321 316 310 305 296 289 287 285 280 276 271 266 260 257 256 255 252 248 244 242 240 237 237 238 238 239 240 239 238 238 238 237 235 233 231 227 226 225 222 221 221 222 222 222 220 219 219 217 213 210 211 214 212 210 209 206 206 208 208 208 210 210 208 209
7 5 355 355 11 6 357 5 1 353 358 353 347 349 346 342 342 336 330 329 327 326 325 325 325 321 312 305 298 295 295 291 283 278 272 266 262 258 255 253 252 250 246 244 241 238 237 239 238 238 239 238 236 236 237 237 236 234 231 227 225 224 222 221 221 222 222 221 218 217 218 215 213 214 219 222 217 214 213 211 209 213 216 215 216 218 217 216
6 7 358 353 7 5 355 2 2 353 355 355 351 348 343 343 343 338 334 336 334 331 330 327 326 322 314 308 306 305 302 296 290 285 278 270 265 261 258 255 253 251 248 245 243 241 239 240 239 237 238 238 236 236 237 237 236 232 228 225 224 224 223 223 223 223 222 220 217 217 217 215 215 220 224 222 217 216 215 212 213 220 221 217 217 222 221 219